This is the latest recevied weather packets stored in our database for station/object K9TLD. If no packets are shown the sender has not sent any weather packets the latest 10 day(s).
| Time | Temp. | Humidity | Pressure | Rain* | Wind** | Luminosity | Snow |
|---|---|---|---|---|---|---|---|
| 1778068893 | 5° C | 86% | 1014.1 hPa | 0 mm | - | 79 W/m² | - |
| 1778068591 | 5° C | 85% | 1014.2 hPa | 0 mm | - | 44 W/m² | - |
| 1778068289 | 4.44° C | 85% | 1014.1 hPa | 0 mm | - | 51 W/m² | - |
| 1778067986 | 4.44° C | 86% | 1014.1 hPa | 0 mm | - | 59 W/m² | - |
| 1778067684 | 3.89° C | 86% | 1014 hPa | 0 mm | - | 57 W/m² | - |
| 1778067382 | 3.89° C | 87% | 1014 hPa | 0 mm | - | 44 W/m² | - |
| 1778067079 | 3.89° C | 88% | 1013.9 hPa | 0 mm | - | 38 W/m² | - |
| 1778066775 | 3.33° C | 90% | 1013.9 hPa | 0 mm | - | 36 W/m² | - |
| 1778066473 | 2.78° C | 92% | 1013.8 hPa | 0 mm | - | 32 W/m² | - |
| 1778066170 | 2.22° C | 93% | 1013.8 hPa | 0 mm | - | 24 W/m² | - |
| 1778065868 | 1.67° C | 93% | 1013.8 hPa | 0 mm | - | 18 W/m² | - |
| 1778065565 | 1.67° C | 93% | 1013.6 hPa | 0 mm | - | 11 W/m² | - |
| 1778065263 | 1.67° C | 93% | 1013.8 hPa | 0 mm | - | 9 W/m² | - |
| 1778064959 | 1.67° C | 93% | 1013.8 hPa | 0 mm | - | 7 W/m² | - |
| 1778064656 | 1.67° C | 93% | 1013.7 hPa | 0 mm | - | 5 W/m² | - |
| 1778064354 | 1.67° C | 94% | 1013.9 hPa | 0 mm | - | 4 W/m² | - |
| 1778064051 | 1.67° C | 94% | 1013.5 hPa | 0 mm | - | 2 W/m² | - |
| 1778063748 | 1.67° C | 94% | 1013.5 hPa | 0 mm | - | 1 W/m² | - |
| 1778063445 | 1.67° C | 94% | 1013.5 hPa | 0 mm | - | 1 W/m² | - |
| 1778063144 | 1.67° C | 93% | 1013.2 hPa | 0 mm | - | 0 W/m² | - |
| 1778062841 | 1.67° C | 93% | 1013.4 hPa | 0 mm | - | 0 W/m² | - |
| 1778062537 | 1.67° C | 93% | 1013.2 hPa | 0 mm | - | 0 W/m² | - |
| 1778062234 | 1.67° C | 93% | 1013.3 hPa | 0 mm | - | 0 W/m² | - |
| 1778061932 | 1.67° C | 93% | 1013.2 hPa | 0 mm | - | 0 W/m² | - |
| 1778061630 | 1.67° C | 93% | 1013.3 hPa | 0 mm | - | 0 W/m² | - |
* Rain latest hour (hover to see other rain measurements)
** Current wind speed in m/s (hover to see current wind gust speed)